TimeCDT,TemperatureF,Dew PointF,Humidity,Sea Level PressureIn,VisibilityMPH,Wind Direction,Wind SpeedMPH,Gust SpeedMPH,PrecipitationIn,Events,Conditions,WindDirDegrees,DateUTC
12:54 AM,37.0,19.9,50,30.32,10.0,East,3.5,-,N/A,,Clear,80,2013-04-03 05:54:00
1:54 AM,35.1,21.9,59,30.31,10.0,NE,10.4,-,N/A,,Clear,40,2013-04-03 06:54:00
2:54 AM,34.0,23.0,64,30.33,10.0,NE,11.5,-,N/A,,Clear,50,2013-04-03 07:54:00
3:54 AM,34.0,21.9,61,30.32,10.0,ENE,11.5,-,N/A,,Clear,60,2013-04-03 08:54:00
4:54 AM,33.1,21.9,64,30.32,10.0,ENE,10.4,-,N/A,,Clear,60,2013-04-03 09:54:00
5:54 AM,32.0,21.9,66,30.34,10.0,NE,11.5,-,N/A,,Clear,50,2013-04-03 10:54:00
6:54 AM,30.0,21.0,69,30.39,10.0,East,5.8,-,N/A,,Clear,80,2013-04-03 11:54:00
7:54 AM,33.1,21.9,64,30.39,10.0,ENE,10.4,-,N/A,,Clear,70,2013-04-03 12:54:00
8:54 AM,37.9,21.9,53,30.40,10.0,East,12.7,-,N/A,,Clear,80,2013-04-03 13:54:00
9:54 AM,41.0,21.0,45,30.40,10.0,East,10.4,-,N/A,,Clear,90,2013-04-03 14:54:00
10:54 AM,44.1,19.0,37,30.39,10.0,ENE,12.7,-,N/A,,Clear,60,2013-04-03 15:54:00
11:54 AM,46.0,19.0,34,30.36,10.0,ENE,15.0,20.7,N/A,,Clear,70,2013-04-03 16:54:00
12:54 PM,48.9,19.9,32,30.33,10.0,ESE,13.8,-,N/A,,Clear,110,2013-04-03 17:54:00
1:54 PM,50.0,19.9,31,30.31,10.0,East,5.8,-,N/A,,Clear,80,2013-04-03 18:54:00
2:54 PM,51.1,21.0,31,30.30,10.0,ESE,13.8,-,N/A,,Clear,110,2013-04-03 19:54:00
3:54 PM,52.0,19.0,27,30.29,10.0,East,11.5,16.1,N/A,,Clear,100,2013-04-03 20:54:00
4:54 PM,51.1,19.0,28,30.27,10.0,East,11.5,-,N/A,,Clear,100,2013-04-03 21:54:00
5:54 PM,50.0,21.9,33,30.26,10.0,ENE,9.2,-,N/A,,Clear,70,2013-04-03 22:54:00
6:54 PM,48.0,24.1,39,30.27,10.0,ENE,9.2,-,N/A,,Clear,70,2013-04-03 23:54:00
7:54 PM,46.0,24.1,42,30.26,10.0,ENE,6.9,-,N/A,,Clear,60,2013-04-04 00:54:00
8:54 PM,44.1,25.0,47,30.26,10.0,ENE,6.9,-,N/A,,Clear,60,2013-04-04 01:54:00
9:54 PM,42.1,25.0,51,30.26,10.0,ENE,8.1,-,N/A,,Clear,70,2013-04-04 02:54:00
10:54 PM,42.1,25.0,51,30.25,10.0,East,6.9,-,N/A,,Clear,90,2013-04-04 03:54:00
11:54 PM,39.9,25.0,55,30.25,10.0,ENE,5.8,-,N/A,,Clear,60,2013-04-04 04:54:00